Saint Martin Island, Netherlands Antilles

5:26 PM on February 19, 2017 (GMT +0000)
Saint Martin Island

Weather History for 78866 - May, 2014

Change the Weather History Date:

Saturday, May 24, 2014

  Actual Average Record
Temperature  
Mean Temperature 81 °F -  
Max Temperature 84 °F 85 °F - ()
Min Temperature 78 °F 77 °F - ()
Cooling Degree Days 16    
Growing Degree Days 31 (Base 50)    
Moisture  
Dew Point 70 °F    
Average Humidity 67    
Maximum Humidity 74    
Minimum Humidity 53    
Precipitation  
Precipitation 0.00 in 0.09 in - ()
Sea Level Pressure  
Sea Level Pressure 30.06 in    
Wind  
Wind Speed 10 mph ()    
Max Wind Speed 13 mph    
Max Gust Speed -    
Visibility 6.2 miles    
Events      
T = Trace of Precipitation, MM = Missing Value Source: Averaged Metar Reports

Daily Weather History Graph

Daily Weather History Graph

Search for Another Location

Airport or City:

Trip Planner

Search our weather history database for the weather conditions in past years. The results will help you decide how hot, cold, wet, or windy it might be!

Date:

Astronomy

May. 24, 2014 Rise Set
Actual Time 9:37 AM UTC 10:41 PM UTC
Civil Twilight 9:13 AM UTC 11:05 PM UTC
Nautical Twilight 8:45 AM UTC 11:33 PM UTC
Astronomical Twilight 8:16 AM UTC 12:02 AM UTC
Moon 6:26 AM UTC (5/24) 7:06 PM UTC (5/24)
Length of Visible Light 13h 51m
Length of Day
13h 04m
Waning Crescent, 19% of the Moon is Illuminated
May 24
Waning Crescent
May 28
New
Jun 5
First Quarter
Jun 13
Full
Jun 19
Last Quarter

Hourly Weather History & Observations

Time (GMT) Temp. Heat Index Dew Point Humidity Pressure Visibility Wind Dir Wind Speed Gust Speed Precip Events Conditions
12:00 AM 80 °F - 70 °F 65% 30.09 in 25 mi East 12.7 mph - -   Scattered Clouds
12:00 AM 80.6 °F 84.6 °F 71.6 °F 74% 30.06 in 6.2 mi East 12.7 mph - N/A   Partly Cloudy
1:00 AM 80.6 °F 83.9 °F 69.8 °F 70% 30.09 in 6.2 mi East 12.7 mph - N/A   Scattered Clouds
2:00 AM 80.6 °F 83.9 °F 69.8 °F 70% 30.09 in 6.2 mi East 12.7 mph - N/A   Scattered Clouds
3:00 AM 80 °F - 69 °F 62% 30.12 in 25 mi East 10.4 mph - -   Scattered Clouds
3:00 AM 80.6 °F 83.9 °F 69.8 °F 70% 30.09 in 6.2 mi East 5.8 mph - N/A   Partly Cloudy
4:00 AM 78.8 °F - 69.8 °F 74% 30.09 in 6.2 mi East 12.7 mph - N/A   Partly Cloudy
5:00 AM 78.8 °F - 68.0 °F 69% 30.06 in 6.2 mi East 10.4 mph - N/A   Partly Cloudy
6:00 AM 79 °F - 69 °F 65% 30.06 in 25 mi East 11.5 mph - -  
6:00 AM 78.8 °F - 69.8 °F 74% 30.04 in 6.2 mi East 11.5 mph - N/A   Partly Cloudy
7:00 AM 78.8 °F - 69.8 °F 74% 30.04 in 6.2 mi East 11.5 mph - N/A   Partly Cloudy
8:00 AM 78.8 °F - 69.8 °F 74% 30.04 in 6.2 mi East 10.4 mph - N/A   Partly Cloudy
9:00 AM 79 °F - 69 °F 65% 30.06 in 25 mi East 10.4 mph - -   Scattered Clouds
9:00 AM 78.8 °F - 69.8 °F 74% 30.06 in 6.2 mi East 10.4 mph - N/A   Partly Cloudy
10:00 AM 78.8 °F - 69.8 °F 74% 30.06 in 6.2 mi East 11.5 mph - N/A   Partly Cloudy
11:00 AM 80.6 °F 83.9 °F 69.8 °F 70% 30.06 in 6.2 mi East 9.2 mph - N/A   Partly Cloudy
12:00 PM 82 °F - 71 °F 61% 30.10 in 28 mi East 9.2 mph - -   Partly Cloudy
12:00 PM 82.4 °F 87.2 °F 71.6 °F 70% 30.09 in 6.2 mi East 9.2 mph - N/A   Scattered Clouds
1:00 PM 82.4 °F 86.3 °F 69.8 °F 66% 30.09 in 6.2 mi East 10.4 mph - N/A   Scattered Clouds
2:00 PM 84.2 °F 89.6 °F 71.6 °F 66% 30.09 in 6.2 mi ESE 10.4 mph - N/A   Scattered Clouds
3:00 PM 84 °F - 70 °F 54% 30.11 in 28 mi SE 10.4 mph - -   Scattered Clouds
3:00 PM 84.2 °F 88.4 °F 69.8 °F 62% 30.09 in 6.2 mi ESE 11.5 mph - N/A   Partly Cloudy
4:00 PM 84.2 °F 87.3 °F 68.0 °F 58% 30.09 in 6.2 mi East 10.4 mph - N/A   Scattered Clouds
5:00 PM 84.2 °F 87.3 °F 68.0 °F 58% 30.06 in 6.2 mi East 10.4 mph - N/A   Partly Cloudy
6:00 PM 84 °F - 70 °F 53% 30.06 in 22 mi SE 11.5 mph - -   Partly Cloudy
6:00 PM 84.2 °F 88.4 °F 69.8 °F 62% 30.04 in 6.2 mi ESE 10.4 mph - N/A   Scattered Clouds
7:00 PM 84.2 °F 88.4 °F 69.8 °F 62% 30.01 in 6.2 mi East 11.5 mph - N/A   Scattered Clouds
8:00 PM 82.4 °F 86.3 °F 69.8 °F 66% 30.01 in 6.2 mi East 10.4 mph - N/A   Scattered Clouds
9:00 PM 82 °F - 71 °F 60% 30.03 in 31 mi East 9.2 mph - -   Partly Cloudy
9:00 PM 82.4 °F 86.3 °F 69.8 °F 66% 30.01 in 6.2 mi East 10.4 mph - N/A   Partly Cloudy
10:00 PM 80.6 °F 83.9 °F 69.8 °F 70% 30.04 in 6.2 mi East 10.4 mph - N/A   Partly Cloudy
11:00 PM 80.6 °F 83.9 °F 69.8 °F 70% 30.04 in 6.2 mi East 9.2 mph - N/A   Partly Cloudy